Vorticity
nan nan nan nan nan nan nan nan nan nan nan nan nan nan nan nan nan nan nan nan nan nan nan nan nan nan nan nan nan nan nan nan nan nan nan nan nan nan nan nan nan nan nan nan
nan 9 9 9 9 9 7 6 8 11 12 8 8 11 14 11 10 9 5 4 6 7 7 9 9 9 7 6 7 5 7 5 6 7 8 9 10 9 9 8 11 10 10 nan
nan 7 9 8 5 6 9 7 10 6 7 9 8 10 11 8 12 13 9 8 7 7 5 9 9 7 8 8 7 7 8 7 7 7 6 7 7 7 9 10 10 11 10 nan
nan 10 8 8 9 7 7 11 6 9 10 7 9 12 7 14 9 9 10 9 8 6 6 9 9 9 9 9 9 10 9 10 9 8 6 6 5 8 8 9 7 10 11 nan
nan 8 8 8 12 9 9 8 7 14 10 8 8 14 7 9 13 15 13 10 13 11 8 8 10 9 9 10 11 10 10 10 10 9 7 7 6 8 8 8 10 10 9 nan
nan 8 11 7 9 10 11 10 10 10 6 6 12 8 8 9 9 10 12 13 14 12 9 9 11 9 9 8 9 9 9 11 11 10 8 7 8 9 8 9 9 10 10 nan
nan 8 9 8 4 7 9 9 8 6 13 7 7 11 9 5 11 11 10 9 10 10 10 8 8 7 9 9 7 8 8 10 10 10 10 11 12 10 8 9 10 9 8 nan
nan 7 12 8 11 9 5 8 6 8 8 12 10 5 12 8 10 11 8 13 11 10 9 10 9 9 9 8 7 9 12 11 10 10 10 11 11 9 11 11 10 8 9 nan
nan 9 9 12 11 9 9 9 8 6 7 11 6 7 8 10 8 7 11 13 11 10 10 9 8 9 9 9 10 7 14 10 10 10 9 9 9 10 9 9 9 9 9 nan
nan 12 8 9 9 8 14 6 6 11 12 6 9 12 11 9 8 10 12 9 9 11 11 10 10 8 8 9 9 14 14 2 6 9 8 10 9 9 8 7 8 9 8 nan
nan 8 8 10 13 6 4 6 10 15 10 10 9 11 17 12 14 10 7 9 10 10 9 10 11 11 11 11 8 3 6 15 9 8 10 9 8 8 9 8 7 8 9 nan
nan 6 14 3 3 13 12 11 7 8 8 9 11 7 14 17 18 10 9 8 8 10 12 12 11 11 12 9 7 9 8 11 8 8 9 9 9 8 8 8 8 8 9 nan
nan 2 5 6 11 17 14 10 6 7 16 14 4 7 6 13 12 12 12 8 9 8 9 10 10 10 8 8 9 10 10 10 8 10 9 8 7 8 8 8 8 9 9 nan
nan 12 13 10 9 6 10 10 8 5 8 13 3 8 6 12 8 9 12 12 9 9 7 7 8 9 9 10 10 9 8 9 9 9 9 9 9 8 7 7 8 9 9 nan
nan 11 8 10 12 8 8 12 10 6 8 5 13 10 9 17 18 10 8 11 9 8 7 9 9 8 8 8 8 10 10 10 8 8 9 8 8 9 9 8 9 9 8 nan
nan 16 12 11 12 10 6 11 12 7 6 8 12 9 12 14 18 15 13 10 7 7 7 6 8 11 9 8 8 8 10 10 9 8 8 9 9 8 8 7 8 8 9 nan
nan 13 10 9 9 10 9 10 9 11 10 13 7 6 4 12 17 15 8 10 10 10 10 10 9 7 9 11 10 10 8 9 10 9 9 10 8 8 8 8 9 8 8 nan
nan 8 12 13 11 10 8 9 13 12 8 7 5 13 14 14 14 15 16 11 9 12 9 8 9 11 9 8 11 11 11 11 9 8 8 9 9 9 8 6 5 7 11 nan
nan 11 11 12 8 8 11 12 12 11 10 13 12 12 16 11 9 9 13 13 13 14 13 11 8 8 10 10 9 8 7 8 10 10 10 9 9 9 8 8 8 10 9 nan
nan 10 11 10 13 10 7 9 11 8 9 12 10 13 14 8 7 12 13 12 12 12 11 11 8 8 11 10 11 10 10 8 8 10 9 9 10 9 9 9 9 10 9 nan
nan 13 12 10 8 9 18 11 8 9 11 7 10 12 11 13 13 15 12 15 15 12 9 9 11 10 10 13 10 7 9 9 9 11 10 9 10 10 10 9 9 8 10 nan
nan 9 6 8 9 13 11 12 9 2 11 12 11 10 11 11 11 12 17 15 10 10 10 12 14 14 12 13 8 9 6 10 10 10 10 10 9 9 10 9 8 11 9 nan
nan 12 12 11 4 7 5 7 8 13 10 9 13 14 9 10 12 11 12 12 11 13 11 9 10 7 13 13 11 10 10 10 11 11 9 9 9 10 10 10 9 10 10 nan
nan 12 6 7 13 11 9 9 10 8 9 9 13 12 11 11 11 14 12 10 10 10 9 9 14 12 11 12 10 9 13 12 11 9 9 9 10 9 9 9 10 9 9 nan
nan 8 10 5 9 15 14 8 9 9 11 14 15 17 13 8 10 10 10 9 13 10 11 15 11 13 10 8 9 11 11 9 9 9 11 9 9 10 11 11 10 9 7 nan
nan nan nan nan nan nan nan nan nan nan nan nan nan nan nan nan nan nan nan nan nan nan nan nan nan nan nan nan nan nan nan nan nan nan nan nan nan nan nan nan nan nan nan nan
CAPE
0 0 0 0 0 0 0 0 0 0 214 201 64 0 0 230 236 193 278 138 217 71 56 18 12 87 145 100 19 93 13 365 204 182 261 199 209 90 51 28 14 332 323 48
0 0 0 0 0 2 19 23 6 1 97 105 0 1 0 10 320 223 159 134 153 116 39 22 0 47 91 40 0 0 0 17 350 245 256 350 303 266 424 385 287 264 648 413
0 0 0 9 4 25 10 1 2 4 5 77 45 0 74 67 34 270 333 69 2 54 35 0 9 0 17 3 0 0 0 0 85 276 276 436 601 399 529 575 591 571 394 331
0 0 0 11 11 0 9 0 0 0 0 0 0 0 0 22 120 39 96 396 54 0 0 19 5 0 0 0 0 0 0 1 85 75 447 653 623 635 399 292 150 182 8 0
0 0 0 28 18 5 12 0 0 0 0 0 0 3 0 0 25 21 2 0 245 115 0 8 0 0 0 0 0 28 72 99 281 244 384 741 838 500 334 139 4 0 1 319
0 0 0 3 0 19 3 0 0 0 0 0 0 0 0 0 34 0 204 444 217 156 49 30 3 0 43 66 12 23 328 632 537 605 855 913 846 542 7 5 190 533 415 167
0 0 0 0 0 0 0 0 0 6 0 0 0 0 0 0 4 0 1 395 353 155 88 25 38 2 96 203 77 18 795 968 912 1096 1246 1003 658 307 264 501 717 444 97 18
0 0 0 0 0 0 0 0 2 0 0 0 0 0 0 95 15 0 0 0 256 177 71 18 25 49 147 360 241 102 1328 1304 1380 1514 1197 711 608 519 226 177 110 0 0 0
0 0 0 0 0 0 0 0 0 0 0 0 0 10 0 0 8 0 3 221 149 208 145 23 0 175 334 395 268 181 839 907 1141 865 680 534 333 137 0 0 0 0 0 0
0 0 0 0 0 0 0 0 0 0 0 0 49 216 170 92 67 8 508 534 453 364 254 143 1 76 382 476 840 941 1027 1143 925 394 89 0 0 0 0 0 0 0 0 0
0 0 0 0 0 0 0 0 0 0 0 0 1 100 41 79 29 446 666 685 954 900 533 469 412 396 614 1295 1197 1031 770 543 209 0 0 0 0 0 0 0 0 0 0 0
0 0 0 0 0 0 0 0 0 0 0 0 0 0 0 17 0 528 619 847 1477 1476 1466 1141 1397 1626 1616 1333 1090 284 20 3 0 0 0 0 0 0 0 0 0 0 0 0
0 0 0 0 0 0 0 0 0 0 0 0 1 0 0 1 82 229 660 1336 1728 1624 1631 1476 1366 1203 858 429 132 22 0 0 0 0 0 0 0 0 0 0 0 0 0 0
0 0 0 0 0 0 0 0 0 0 0 0 0 0 0 3 44 575 468 1554 1697 1650 1457 1145 947 598 215 28 0 0 0 0 0 0 0 0 0 0 0 0 0 0 0 0
0 0 0 0 0 0 0 0 0 0 0 0 0 0 0 0 14 356 474 1445 1671 1567 1178 1017 770 255 0 0 0 0 0 0 0 0 0 0 0 0 0 0 0 0 0 0
0 0 0 0 0 0 0 0 0 0 0 0 0 0 0 0 32 341 508 1377 1546 1419 1212 945 387 0 0 0 0 0 0 0 0 0 0 0 0 0 0 0 0 0 0 0
0 0 0 0 0 0 0 14 54 21 28 0 1 0 0 19 52 211 311 1205 1344 1295 1056 581 148 0 0 0 0 0 0 0 0 0 0 0 0 0 0 0 0 0 0 0
0 0 0 0 0 0 0 0 4 24 77 54 51 16 0 0 13 37 250 1016 1073 876 555 59 0 0 0 0 0 0 0 0 0 0 0 0 0 0 0 0 0 0 0 0
0 0 0 0 0 0 41 74 99 38 45 12 82 41 75 77 44 60 50 50 564 408 2 0 0 0 0 0 0 0 0 0 0 0 0 0 0 0 0 0 0 0 0 0
0 0 0 0 0 0 0 15 3 0 130 0 70 97 31 58 206 256 127 437 145 0 0 0 0 0 0 0 0 0 0 0 0 0 0 0 0 0 0 0 0 0 0 0
0 0 3 12 72 64 0 9 39 113 208 4 23 59 159 175 82 35 21 316 25 0 2 2 7 0 0 0 0 0 0 0 0 0 0 0 0 0 0 0 0 0 0 0
0 17 44 3 19 163 59 179 27 2 22 14 19 16 0 0 327 713 698 278 20 12 97 36 19 0 0 0 0 0 0 0 0 0 0 0 0 0 0 0 0 0 0 0
0 1 133 30 36 9 235 167 206 73 68 99 32 11 2 413 789 549 390 277 119 52 179 9 0 0 0 0 0 0 0 0 0 0 0 0 0 0 0 0 0 0 0 0
2 10 82 86 2 26 52 17 1 319 264 112 49 120 201 768 740 487 374 212 148 17 8 0 0 0 0 0 0 0 0 0 0 0 0 0 0 0 0 0 0 0 0 0
0 73 67 55 28 41 49 5 32 198 303 157 233 599 649 707 499 422 233 109 33 7 0 0 0 0 0 0 0 0 0 0 0 0 0 0 0 0 0 0 0 0 0 0
2 69 72 47 2 38 28 8 1 291 267 183 166 650 561 464 336 222 127 19 0 0 0 0 0 0 0 0 0 0 0 0 0 0 0 0 0 0 0 0 0 0 0 0